星链-5684 (STARLINK-5684 )

导读

STARLINK-5684是美国SpaceX公司于2023年2月2日发射的星链系列低轨互联网卫星,归属星链第一代星座,运行在近地轨道。它配备相控阵天线与氪离子霍尔推进器,具备自主轨道规避能力,可提供高速卫星互联网接入服务,助力星链完成全球覆盖,为偏远地区及移动场景提供宽带连接,是星链大规模组网中的一员。

基本信息
目录编号:
55453
目录名称:
STARLINK-5684
国际标识:
2023-015E
轨道中心:
EARTH
卫星名称:
星链-5684
卫星全名:
星链-5684 (STARLINK-5684 )
卫星状态:
在轨 (已飞行1310 天)
发射日期:
2023-02-02 UTC
国别 :
美国 (US)
星等 :
--
轨道信息
数据来源 国际轨道数据
星历时间: 2026-09-04T06:19:08+0800
21小时前
查看轨道信息
半长轴: 6861.42km
偏心率: 0.0002587
轨道倾角: 43.006°
近地点辐角 308.137°
升交点赤经 41.952°
平近点角 51.925°
近地点: 481.507km
远地点: 485.059km
周期: 94.272分钟
每日圈数: 15.275019
详细信息
固有亮度:
5
最大亮度:
2.5
卫星平台:
Starlink v1.5
覆盖范围:
全球
运营商:
太空探索技术公司
运营商所在国:
美国
制造商(研发单位):
太空探索技术公司
制造商所在国:
美国
使用方式:
暂无
卫星简介
星链(Starlink)计划是由太空探索技术公司(SpaceX)提出的一个巨型低轨卫星互联网星座项目,计划在2019年至2024年间在太空搭建由约1.2万颗卫星组成的“星链”网络,其中1584颗将部署在地球上空550千米处的近地轨道,并从2020年开始工作。该卫星仍在工作。
2D轨道图
3D轨道图
轨道高度分析图
轨道倾角分析图
轨道综合分析图
查看轨道综合分析图
交会数据列表
事件ID 空间交会对象 最接近时刻(TCA) 交会距离 交会风险概率(CRP) 交会风险指数(CRI) 操作
CDM_260902-185505-308805-545321
2026-09-02T
18:55:15+0000
1.812 km
极远距离
2.330691E-6 低风险 0.42
CDM_260907-005605-545306-391321
2026-09-07T
00:56:30+0000
2.984 km
极远距离
1.085295E-6 低风险 0.36